www.pogodaiklimat.ru

Погода и климат >> Архив погоды >> Россия >> Камчатский край >> Большерецк


ПОГОДА в Большерецке

  • Прогноз погоды в Большерецке
  • Монитор погоды в Большерецке
  • Климат города

АРХИВ ПОГОДЫ в Большерецке

Время (UTC), дата Ветер
(напр.,м/с)
 
Видим.   Явления Облачность Т
(С)
Тd
(С)
f
(%)
Тe
(С)
Тes
(С)
Комфортность P
(гПа)
Po
(гПа)
Тmin
(С)
Tmax
(С)
R
(мм)
R24
(мм)
S
(см)
15 23.04 штиль 0 20 км 10/10 600 м
[Sc]
-1.4 -2.1 95 -3 -3 1014.6 1010.8
18 23.04 СВ 3 50 км 9/4 600 м
[Sc Ac trans]
-2.7 -5.0 84 -8 -8 1015.3 1011.5
21 23.04 С 2 50 км 8/0
[Ac trans]
0.0 -4.4 72 -3 -1 1016.5 1012.7 -3.1 3
00 24.04 СЗ 3 50 км 8/0
[Ci fib]
+1.9 -1.3 79 -2 +6 1016.6 1012.8
03 24.04 СЗ 5 50 км 8/0
[Ci fib]
+1.2 -0.7 87 -5 +1 1016.3 1012.5
06 24.04 СЗ 5 50 км 6/0
[Ci fib]
+1.1 -0.6 88 -5 -3 1016.2 1012.4
09 24.04 СЗ 7-10
{11}
20 км 9/9 600 м
[Sc]
-0.8 -2.1 91 -8 -8 1016.5 1012.7 +2.4
12 24.04 СЗ 4
{10}
20 км 10/10 600 м
[Sc]
-0.9 -2.1 92 -7 -7 1016.7 1012.9
15 24.04 СЗ 3 20 км 10/10 600 м
[Sc]
-1.3 -2.5 92 -6 -6 1016.4 1012.6
18 24.04 СЗ 3 20 км 10/10 600 м
[Sc]
-1.6 -2.9 91 -7 -7 1016.7 1012.9
21 24.04 СЗ 2 20 км 10/10 600 м
[Sc]
-1.1 -2.9 88 -5 -5 1016.1 1012.3 -1.6 2
00 25.04 СЗ 2 50 км 10/10 600 м
[Sc]
+0.4 -3.2 77 -3 -3 1015.7 1011.9
03 25.04 СЗ 4 50 км 9/9 600 м
[Sc]
+1.6 -1.8 78 -3 -3 1014.9 1011.1
06 25.04 СЗ 4 20 км 10/10 600 м
[Sc]
+0.5 -1.8 85 -5 -5 1014.5 1010.7
09 25.04 СЗ 4 20 км 10/10 600 м
[Sc]
-0.3 -2.2 87 -6 -6 1014.8 1011.0 +1.9
12 25.04 СЗ 1 20 км 10/10 600 м
[Sc]
+0.2 -1.2 90 -2 -2 1014.6 1010.8
15 25.04 З 1 20 км 10/10 600 м
[Sc]
-0.1 -1.5 90 -2 -2 1014.4 1010.6
18 25.04 СЗ 2 20 км 10/10 300 м
[St]
+0.1 -0.8 94 -4 -4 1013.9 1010.2
21 25.04 С 3 20 км 10/10 300 м
[St]
-0.2 -0.8 96 -5 -5 1013.7 1009.9 -0.5 1
00 26.04 СЗ 2 20 км 10/10 300 м
[St]
+0.5 -0.7 92 -3 -3 1013.1 1009.3
03 26.04 СЗ 3 20 км 10/10 300 м
[St]
+0.5 -1.0 90 -4 -4 1012.2 1008.4
06 26.04 СЗ 2 20 км 10/10 300 м
[St]
-0.6 -1.8 92 -4 -4 1011.1 1007.3
09 26.04 СЗ 2 20 км 10/10 300 м
[St]
-1.6 -2.1 96 -6 -6 1010.5 1006.7 +0.8
12 26.04 С 2 20 км 10/10 300 м
[St]
-1.8 -2.1 98 -6 -6 1008.8 1005.0
15 26.04 СВ 1 20 км слабый снег 10/10 300 м
[St]
-1.7 -1.9 99 -4 -4 1007.7 1003.9
18 26.04 ЮВ 1 20 км в посл. час снег 10/10 300 м
[St]
-1.2 -1.9 95 -4 -4 1006.3 1002.5
21 26.04 В 2 20 км 10/10 300 м
[St]
-0.7 -1.9 92 -5 -5 1005.3 1001.5 -1.8 0.0 0
00 27.04 В 3 10 км слабый ливневой снег 10/10 600 м
[Cb cap]
+1.3 -0.5 88 -3 -3 1004.1 1000.4
03 27.04 ЮВ 6 20 км в посл. час ливневой снег 10/10 600 м
[Cb cap]
+3.3 -3.1 63 -2 -2 1002.5 998.8
06 27.04 ЮВ 3 50 км {ливн. осадки} 10/10 600 м
[Cb cap]
+3.7 -2.1 66 0 0 1000.2 996.5
09 27.04 В 6 50 км 10/10 600 м
[Sc]
+2.1 -3.1 68 -4 -4 998.0 994.3 +4.4 0.0
12 27.04 СВ 5-10
{11}
20 км 8/8 600 м
[Sc]
+0.8 -3.9 71 -5 -5 994.6 990.9
15 27.04 СВ 5
{11}
10 км слабый ливневой снег 10/10 600 м
[Cb cap]
+0.1 -1.8 87 -6 -6 990.3 986.6
18 27.04 СЗ 7-10
{10}
10 км слабый ливневой снег 10/10 600 м
[Cb cap]
-0.8 -0.9 99 -8 -8 984.7 981.0
21 27.04 С 7-10
{12}
10 км слабый ливневой снег 10/10 300 м
[Cb cap]
-0.6 -0.7 99 -8 -8 981.1 977.4 -1.0 1 1
00 28.04 СЗ 5-10
{11}
20 км слабый ливневой снег 9/9 600 м
[Cb cap]
+0.5 +0.1 97 -6 -5 978.2 974.6
03 28.04 З 4
{10}
20 км в посл. час ливневой снег 9/9 600 м
[Cb cap]
+2.8 +0.2 83 -2 -1 976.5 972.9
06 28.04 СЗ 4 20 км {ливн. осадки} 9/9 600 м
[Cb cap]
+1.5 +0.4 92 -4 -3 975.8 972.2
09 28.04 З 4 20 км 9/9 600 м
[Cb cap]
+0.1 -0.3 97 -6 -6 976.1 972.4 +3.2 0.0
12 28.04 З 4 20 км 10/10 600 м
[Cb cap]
+0.4 +0.1 98 -5 -5 977.1 973.4
15 28.04 СЗ 3 20 км 10/10 600 м
[Sc]
-0.1 -0.5 97 -5 -5 978.0 974.3
18 28.04 З 4 20 км 10/10 600 м
[Sc]
+0.1 -0.4 96 -6 -6 980.4 976.8
21 28.04 З 4 50 км 9/3 600 м
[Sc Ac trans]
+1.3 +0.2 92 -4 -3 982.7 979.0 -0.5 0
00 29.04 СЗ 5 50 км 6/6 600 м
[Sc]
+3.2 +0.8 84 -2 +1 985.0 981.3
03 29.04 З 5 20 км 8/8 600 м
[Sc]
+3.8 +1.0 82 -1 0 987.7 984.1
06 29.04 З 4 20 км 8/8 600 м
[Sc]
+3.4 +0.9 84 -1 -1 990.8 987.1
09 29.04 Ю 3 20 км 9/9 600 м
[Sc]
+1.4 +0.4 93 -3 -3 994.8 991.1 +3.9
12 29.04 ЮВ 3 20 км 9/9 600 м
[Sc]
+0.6 -0.1 95 -4 -4 997.9 994.2
15 29.04 ЮВ 4 20 км 9/9 600 м
[Sc]
+0.4 -0.1 96 -5 -5 1000.3 996.5
18 29.04 ЮВ 3 20 км 10/10 600 м
[Sc]
+0.8 -0.6 90 -4 -4 1002.3 998.5
21 29.04 ЮВ 4 20 км 6/4 600 м
[Sc Ac trans]
+1.7 -0.2 87 -3 -2 1004.1 1000.4 +0.2 0
00 30.04 Ю 4 50 км 4/4 600 м
[Sc]
+3.4 +0.4 81 -1 +4 1005.8 1002.1
03 30.04 ЮЗ 3 50 км 3/3 600 м
[Sc]
+4.4 +0.2 74 +1 +8 1007.4 1003.7
06 30.04 ЮЗ 1 50 км 3/0
[Ci fib]
+5.0 +0.1 71 +4 +9 1008.3 1004.6
09 30.04 ЮЗ 1 20 км 5/5 600 м
[Sc]
+1.1 -0.7 88 -1 -1 1010.6 1006.8 +5.0

 

Местоположение метеостанции Большерецк (Камчатский край, Россия): широта 52.83 долгота 156.30 высота над уровнем моря 30 м.

В архиве по умолчанию представлена погода в Большерецке за последнюю неделю. Архивные данные за месяц целиком и за предыдущие месяцы, начиная с января 2011 года, Вы можете получить, выбрав интересующий диапазон дат из раскрывающегося списка и нажав кнопку "Ввод!".

Внимание! Время в таблицах - всемирное. Для получения местного времени необходимо прибавить поправку, которая в Большерецке равна 12 ч.

Смотрите также архив погоды в соседних городах и на ближайших метеорологических станциях:

Погода в Начиках (Камчатский край, Россия) (99 км)
Погода в Сосновке (Камчатский край, Россия) (137 км)
Погода в Петропавловск-Камч. 2 (Камчатский край, Россия) (150 км)
Погода в Озерной (Камчатский край, Россия) (150 км)
Погода в Петропавловск-Камчатском (Камчатский край, Россия) (155 км)
Погода в Водопадной (Камчатский край, Россия) (161 км)
Погода в Петропавловском Маяке (Камчатский край, Россия) (161 км)
Погода в Соболево (Камчатский край, Россия) (166 км)
Погода в Пущино (Камчатский край, Россия) (188 км)
Погода на Мысе Лопатка (Камчатский край, Россия) (219 км)

Пояснения к столбцам:

Ветер - указаны скорость ветра в м/с - средняя за 10 мин, порывы в срок и между сроками (в фигурных скобках) и направление, откуда дует ветер: С - северный, СВ - северо-восточный, В - восточный, ЮВ - юго-восточный, Ю - южный, ЮЗ - юго-западный, З - западный, СЗ - северо-западный.
Видимость - горизонтальная дальность видимости в метрах или километрах. При видимости от 1 до 10 км при отсутствии осадков обычно наблюдается дымка, при ухудшении видимости до 1 км и менее - туман. В сухую погоду видимость может ухудшаться дымом, пылью или мглою.
Явления - указаны атмосферные явления, наблюдавшиеся в срок или в последний час перед сроком; фигурными скобками обозначены явления, наблюдавшиеся между сроками (за 1-3 часа до срока); квадратными скобками обозначены град или гололедные отложения с указанием их диаметра в мм.
Облачность - указаны через наклонную черту общая и нижняя облачность в баллах и высота нижней границы облаков в метрах; квадратными скобками обозначены формы облаков: Ci - перистые, Cs - перисто-слоистые, Cc - перисто-кучевые, Ac - высококучевые, As - высокослоистые, Sc - слоисто-кучевые, Ns - слоисто-дождевые, Cu - кучевые, Cb - кучево-дождевые. Подробнее классификацию облаков см. в Атласе облаков (PDF).
T - Температура воздуха - температура, измеренная на высоте 2 м над землей.
Td - Температура точки росы - температура, при понижении до которой содержащийся в воздухе водяной пар достигнет насыщения.
f - Относительная влажность воздуха - влажноcть воздуха, измеренная на высоте 2 м над землей.
Te - Эффективная температура - температура, которую ощущает одетый по сезону человек в тени. Характеристика душности погоды. При расчете учитывается влияние влажности воздуха и скорости ветра на теплоощущения человека.
Tes - Эффективная температура на солнце - температура, которую ощущает человек, с поправкой на солнечный нагрев. Характеристика знойности погоды. Зависит от высоты солнца над горизонтом, облачности и скорости ветра. Ночью, в пасмурную погоду, а также при ветре 12 м/с и более поправка равна нулю.
P - Атмосферное давление - приведенное к уровню моря атмосферное давление.
Po - Атмосферное давление - измеренное на уровне метеостанции атмосферное давление.
Tmin - Минимальная температура - минимум температуры воздуха на высоте 2 м над землей.
Tmax - Максимальная температура - максимум температуры воздуха на высоте 2 м над землей.
R - Количество осадков - Количество выпавших осадков за период времени, мм. При наведении курсора мыши на число - период времени, за который выпало указанное количество осадков.
R24 - Количество осадков - Количество выпавших осадков за 24 часа, мм.
S - Снежный покров - Высота снежного покрова, см. При наведении курсора мыши на число - состояние снежного покрова и степень покрытия местности в баллах.